Find Starlink 5291

NORAD ID: 55273 Int'l Des: 2023-010 Owner: SPXS Country: US Constellation: starlink operational
LEOCIRCULAR

当前视图

正在加载3D地球...

About Starlink 5291

Starlink 5291 (NORAD 55273) is a starlink constellation satellite (v1.5) launched Jan 19, 2023 by SPXS of US. It operates in LEO, CIRCULAR orbit with a mass of 305.00 kg.

即将过境

Passes for default location (London). Set your location on the main map for personalized predictions.

高度历史

Loading altitude history...

两行轨道根数

1 55273U 23010E 26237.68678734 .00001478 00000-0 13162-3 0 9993
2 55273 69.9986 338.2127 0003519 269.1547 90.9209 14.98348145198104
Epoch: Aug 25, 2026 • Age: 12 hours

当前状态

高度 595.1 km
远地点 / 近地点 N/A
速度 7.56 km/s
星下点 -70.10°S, 161.98°W
发射日期 Jan 19, 2023
运行时间 3.5 years
类型 internet

技术详情

分类 Payload
质量 305.00 kg
干质量 290.00 kg
总质量 305.00 kg
长度 0.20 m
直径 2.80 m
跨度 9.00 m
形状 Box + pan
制造商 SPXS
平台类型 Starlink
阶段状态 In Orbit
所有者/国家 SPXS/US

Most Searched